Content
SEND FEEDBACK

Daily
Averages
Monthly
Summary
Russia

MURMANSK, RUSSIA


Home > Europe > Russia
Elevation: 151 feet     Latitude: 68 58N     Longitude: 033 03E

WEATHER
 
SELECT A DAY
Number of Records: 198,205;   Date Range: 3/24/97 - 8/28/14
 
SHARE

PRINT THIS DATA

[ ← Previous Day ]
WEATHER ALMANAC - FEBRUARY 13, 2013
[ Next Day → ]
[ °C ]   °F
Weather ElementAverageHighLow
Temperature17 °F23 °F (4:00 am)6.8 °F (12:00 pm)
Dewpoint14.3 °F21 °F (7:00 am)5 °F (11:30 am)
Humidity88.8 %93 % (12:30 am)74 % (10:00 pm)
Barometer30.58 in30.65 in (7:00 pm)30.48 in (12:30 am)
Wind Speed4.8 mph13.4 mph (10:00 pm)
Weather ElementAverage
Visibility10.2 mi
Wind DirectionENE (78.2 °)

Weather ElementTotal
Precipitation---
Heating Degree Days50.1 (Base 65)
Averaged from 55 records on February 13, 2013
WEATHER CONDITIONS BREAKOUT
WIND DIRECTION BREAKOUT
WEATHER BY HOUR - FEBRUARY 13, 2013
[ °C ]   °F
Local TimeTemperatureDewpointHumidityBarometerVisibilityWind DirectionWind SpeedGust SpeedPrecipitationEventsConditions
12:30 AM19.4 °F17.6 °F93 %30.48 in6.2 miCalmMostly Cloudy
1:00 AM22.0 °F19.0 °F83 %30.53 in31.0 miSSW (200°)8.9 mphOvercast
1:00 AM19.4 °F17.6 °F93 %30.51 in6.2 miCalmMostly Cloudy
1:30 AM19.4 °F17.6 °F93 %30.51 in6.2 miCalmMostly Cloudy
2:00 AM19.4 °F17.6 °F93 %30.51 in6.2 miCalmMostly Cloudy
2:30 AM19.4 °F17.6 °F93 %30.51 in6.2 miCalmMostly Cloudy
3:00 AM19.4 °F17.6 °F93 %30.51 in6.2 miCalmMostly Cloudy
3:30 AM19.4 °F17.6 °F93 %30.51 in6.2 miCalmMostly Cloudy
4:00 AM23.0 °F20.0 °F85 %30.56 in31.0 miSSW (210°)8.9 mphOvercast
4:00 AM19.4 °F17.6 °F93 %30.54 in6.2 miCalmMostly Cloudy
4:30 AM19.4 °F17.6 °F93 %30.54 in6.2 miCalmMostly Cloudy
5:00 AM21.2 °F19.4 °F93 %30.54 in6.2 miVariable2.2 mphMostly Cloudy
5:30 AM21.2 °F19.4 °F93 %30.54 in6.2 miCalmMostly Cloudy
6:00 AM21.2 °F17.6 °F86 %30.54 in6.2 miCalmMostly Cloudy
6:30 AM19.4 °F17.6 °F93 %30.54 in6.2 miCalmMostly Cloudy
7:00 AM23.0 °F21.0 °F88 %30.57 in31.0 miSSW (200°)8.9 mphOvercast
7:00 AM19.4 °F17.6 °F93 %30.54 in6.2 miCalmMostly Cloudy
7:30 AM19.4 °F17.6 °F93 %30.54 in6.2 miCalmMostly Cloudy
8:00 AM19.4 °F17.6 °F93 %30.54 in6.2 miVariable4.5 mphMostly Cloudy
8:30 AM15.8 °F14.0 °F93 %30.57 in6.2 miVariable2.2 mphMostly Cloudy
9:00 AM10.4 °F8.6 °F92 %30.57 in6.2 miVariable4.5 mphScattered Clouds
9:30 AM10.4 °F8.6 °F92 %30.57 in6.2 miVariable4.5 mphPartly Cloudy
10:00 AM22.0 °F19.0 °F84 %30.60 in28.0 miSSW (200°)8.9 mphSnowLight Snow Showers
10:00 AM8.6 °F6.8 °F92 %30.57 in6.2 miVariable2.2 mphPartly Cloudy
10:30 AM10.4 °F8.6 °F92 %30.57 in6.2 miVariable2.2 mphScattered Clouds
11:00 AM8.6 °F6.8 °F92 %30.60 in6.2 miCalmScattered Clouds
11:30 AM8.6 °F5.0 °F85 %30.60 in6.2 miVariable4.5 mphScattered Clouds
12:00 PM6.8 °F5.0 °F92 %30.60 in6.2 miSouth (170°)4.5 mphScattered Clouds
12:30 PM15.8 °F14.0 °F93 %30.60 in6.2 miVariable4.5 mphPartly Cloudy
1:00 PM20.0 °F17.0 °F84 %30.63 in31.0 miSouth (180°)11.2 mphSnowLight Snow Showers
1:00 PM17.6 °F15.8 °F93 %30.60 in6.2 miVariable4.5 mphPartly Cloudy
1:30 PM17.6 °F15.8 °F93 %30.60 in6.2 miVariable4.5 mphPartly Cloudy
2:00 PM19.4 °F15.8 °F86 %30.60 in6.2 miVariable4.5 mphPartly Cloudy
2:30 PM19.4 °F15.8 °F86 %30.60 inSouth (170°)4.5 mphClear
3:00 PM19.4 °F14.0 °F80 %30.63 inSouth (170°)4.5 mphClear
3:30 PM17.6 °F14.0 °F86 %30.63 inVariable4.5 mphClear
4:00 PM20.0 °F16.0 °F76 %30.64 in31.0 miSouth (190°)8.9 mphPartly Cloudy
4:00 PM19.4 °F15.8 °F86 %30.60 inSSE (160°)6.7 mphClear
4:30 PM17.6 °F14.0 °F86 %30.63 inVariable4.5 mphClear
5:00 PM17.6 °F14.0 °F86 %30.60 inSouth (170°)4.5 mphClear
5:30 PM14.0 °F12.2 °F93 %30.63 in6.2 miSouth (170°)4.5 mphScattered Clouds
6:00 PM14.0 °F10.4 °F86 %30.63 in6.2 miVariable4.5 mphMostly Cloudy
6:30 PM15.8 °F12.2 °F86 %30.60 in6.2 miSSE (160°)6.7 mphMostly Cloudy
7:00 PM17.0 °F13.0 °F76 %30.65 in31.0 miSSW (200°)8.9 mphMostly Cloudy
7:00 PM15.8 °F12.2 °F86 %30.60 in6.2 miSSE (160°)6.7 mphMostly Cloudy
7:30 PM15.8 °F12.2 °F86 %30.60 in6.2 miSSE (150°)6.7 mphScattered Clouds
8:00 PM15.8 °F14.0 °F93 %30.60 in6.2 miSSE (160°)8.9 mphMostly Cloudy
8:30 PM15.8 °F12.2 °F86 %30.60 in6.2 miSSE (160°)6.7 mphMostly Cloudy
9:00 PM15.8 °F14.0 °F93 %30.60 in6.2 miSouth (170°)8.9 mphMostly Cloudy
9:30 PM15.8 °F12.2 °F86 %30.60 in6.2 miSSE (160°)8.9 mphMostly Cloudy
10:00 PM16.0 °F11.0 °F74 %30.62 in31.0 miSouth (190°)13.4 mph
10:00 PM14.0 °F10.4 °F86 %30.57 in6.2 miSSE (150°)8.9 mphMostly Cloudy
10:30 PM14.0 °F12.2 °F93 %30.57 in6.2 miSSE (160°)11.2 mphMostly Cloudy
11:00 PM14.0 °F10.4 °F86 %30.57 in6.2 miSE (140°)11.2 mphMostly Cloudy
11:30 PM14.0 °F10.4 °F86 %30.57 in6.2 miSSE (150°)11.2 mphMostly Cloudy
Hourly data recorded from ULMM, located miles away from Murmansk, Russia







STORIES FROM OUR PARTNERS